| time (UTC) | temp C | wind direction | speed KPH | gust KPH | rain 1hr cm | rain 24hr cm | rain mn cm | humidity % | barometer mb |
| 20260507021156 | 8 | 35 | 0.0 | 0.0 | 0.00 | 1.55 | 1.55 | 95 | 1011.4 |
| 20260507020655 | 8 | 18 | 0.0 | 0.0 | 0.00 | 1.55 | 1.55 | 95 | 1011.7 |
| 20260507020150 | 8 | 13 | 0.0 | 0.0 | 0.00 | 1.55 | 1.55 | 95 | 1011.8 |
| 20260507015649 | 8 | 31 | 0.0 | 0.0 | 0.00 | 1.55 | 1.55 | 95 | 1011.8 |
| 20260507015146 | 8 | 42 | 1.6 | 1.6 | 0.00 | 1.55 | 1.55 | 95 | 1011.6 |
| 20260507014642 | 8 | 40 | 1.6 | 1.6 | 0.00 | 1.55 | 1.55 | 95 | 1011.6 |
| 20260507014138 | 8 | 23 | 0.0 | 1.6 | 0.00 | 1.55 | 1.55 | 95 | 1011.9 |
| 20260507013636 | 8 | 7 | 0.0 | 0.0 | 0.00 | 1.55 | 1.55 | 95 | 1011.9 |
| 20260507013132 | 8 | 21 | 0.0 | 0.0 | 0.00 | 1.55 | 1.55 | 96 | 1011.8 |
| 20260507012630 | 8 | 53 | 1.6 | 1.6 | 0.00 | 1.55 | 1.55 | 96 | 1011.7 |
| 20260507012125 | 8 | 17 | 0.0 | 1.6 | 0.00 | 1.55 | 1.55 | 96 | 1011.6 |
| 20260507011624 | 8 | 42 | 0.0 | 0.0 | 0.00 | 1.55 | 1.55 | 97 | 1011.5 |
| 20260507011119 | 8 | 30 | 0.0 | 0.0 | 0.00 | 1.55 | 1.55 | 97 | 1011.4 |
| 20260507010614 | 8 | 30 | 0.0 | 0.0 | 0.00 | 1.55 | 1.55 | 97 | 1011.6 |
| 20260507010110 | 8 | 14 | 0.0 | 0.0 | 0.00 | 1.55 | 1.55 | 97 | 1011.5 |
| 20260507005608 | 8 | 7 | 0.0 | 0.0 | 0.00 | 1.55 | 1.55 | 97 | 1011.3 |
| 20260507005104 | 8 | 25 | 0.0 | 1.6 | 0.00 | 1.55 | 1.55 | 97 | 1011.3 |
| 20260507004601 | 8 | 19 | 1.6 | 1.6 | 0.00 | 1.55 | 1.55 | 97 | 1011.3 |
| 20260507004058 | 8 | 25 | 0.0 | 0.0 | 0.00 | 1.55 | 1.55 | 97 | 1011.4 |
| 20260507003554 | 8 | 10 | 0.0 | 0.0 | 0.00 | 1.55 | 1.55 | 97 | 1011.2 |
| 20260507003049 | 8 | 11 | 0.0 | 0.0 | 0.00 | 1.55 | 1.55 | 97 | 1010.9 |
| 20260507002546 | 8 | 6 | 0.0 | 0.0 | 0.00 | 1.55 | 1.55 | 97 | 1010.9 |
| 20260507002042 | 8 | 6 | 0.0 | 0.0 | 0.00 | 1.55 | 1.55 | 97 | 1010.6 |
| 20260507001539 | 8 | 17 | 0.0 | 0.0 | 0.00 | 1.55 | 1.55 | 97 | 1010.6 |
| 20260507001036 | 8 | 27 | 0.0 | 0.0 | 0.00 | 1.55 | 1.55 | 97 | 1010.7 |
| 20260507000532 | 8 | 17 | 0.0 | 0.0 | 0.00 | 1.55 | 1.55 | 97 | 1010.7 |
| 20260507000028 | 8 | 4 | 0.0 | 0.0 | 0.00 | 1.55 | 1.55 | 97 | 1010.4 |
| 20260506235526 | 8 | 11 | 0.0 | 0.0 | 0.00 | 1.55 | 1.55 | 97 | 1010.3 |
| 20260506235021 | 8 | 64 | 1.6 | 1.6 | 0.00 | 1.55 | 1.55 | 97 | 1010.4 |
| 20260506234519 | 8 | 22 | 4.8 | 4.8 | 0.00 | 1.55 | 1.55 | 97 | 1010.3 |
| 20260506234016 | 8 | 21 | 0.0 | 0.0 | 0.00 | 1.55 | 1.55 | 97 | 1010.1 |
| 20260506233512 | 8 | 78 | 0.0 | 0.0 | 0.00 | 1.55 | 1.55 | 97 | 1010.4 |
| 20260506233010 | 8 | 16 | 0.0 | 1.6 | 0.00 | 1.55 | 1.55 | 97 | 1010.4 |
| 20260506232506 | 9 | 8 | 1.6 | 3.2 | 0.00 | 1.55 | 1.55 | 97 | 1010.3 |
| 20260506232001 | 9 | 13 | 0.0 | 0.0 | 0.00 | 1.55 | 1.55 | 97 | 1010.4 |
| 20260506231459 | 8 | 7 | 0.0 | 0.0 | 0.00 | 1.55 | 1.55 | 97 | 1010.3 |
| 20260506230957 | 9 | 10 | 1.6 | 1.6 | 0.00 | 1.55 | 1.55 | 97 | 1010.2 |
| 20260506230452 | 9 | 9 | 1.6 | 3.2 | 0.00 | 1.55 | 1.55 | 97 | 1010.2 |
| 20260506225949 | 9 | 8 | 0.0 | 0.0 | 0.00 | 1.55 | 1.55 | 97 | 1010.1 |
| 20260506225447 | 9 | 322 | 1.6 | 1.6 | 0.00 | 1.55 | 1.55 | 97 | 1010.1 |
| 20260506224943 | 9 | 20 | 1.6 | 3.2 | 0.00 | 1.55 | 1.55 | 97 | 1009.7 |
| 20260506224440 | 10 | 15 | 0.0 | 1.6 | 0.00 | 1.55 | 1.55 | 97 | 1009.7 |
| 20260506223937 | 10 | 26 | 1.6 | 8.0 | 0.00 | 1.55 | 1.55 | 97 | 1009.4 |
| 20260506223432 | 10 | 9 | 0.0 | 0.0 | 0.13 | 1.55 | 1.55 | 97 | 1009.2 |
| 20260506222930 | 10 | 10 | 0.0 | 0.0 | 0.13 | 1.55 | 1.55 | 97 | 1009.4 |
| 20260506222426 | 10 | 12 | 0.0 | 0.0 | 0.00 | 1.52 | 1.52 | 97 | 1009.1 |
| 20260506221923 | 10 | 11 | 0.0 | 0.0 | 0.00 | 1.52 | 1.52 | 97 | 1008.9 |
| 20260506221420 | 10 | 8 | 0.0 | 0.0 | 0.00 | 1.52 | 1.52 | 97 | 1009.1 |
| 20260506220918 | 10 | 344 | 0.0 | 1.6 | 0.00 | 1.52 | 1.52 | 97 | 1008.9 |
| 20260506220413 | 10 | 26 | 0.0 | 0.0 | 0.00 | 1.52 | 1.52 | 96 | 1008.6 |
| 20260506215910 | 10 | 11 | 0.0 | 0.0 | 0.30 | 1.52 | 1.52 | 96 | 1008.7 |
| 20260506215406 | 10 | 28 | 0.0 | 1.6 | 0.48 | 1.52 | 1.52 | 96 | 1008.7 |
| 20260506214902 | 10 | 352 | 0.0 | 1.6 | 0.61 | 1.50 | 1.50 | 96 | 1008.6 |
| 20260506214359 | 10 | 326 | 1.6 | 1.6 | 0.89 | 1.45 | 1.45 | 95 | 1008.3 |
| 20260506213857 | 10 | 10 | 0.0 | 0.0 | 0.43 | 1.37 | 1.37 | 95 | 1008.0 |
| 20260506213354 | 11 | 22 | 4.8 | 4.8 | 0.00 | 1.30 | 1.30 | 95 | 1008.0 |
| 20260506212852 | 11 | 39 | 1.6 | 1.6 | 0.00 | 1.30 | 1.30 | 95 | 1007.9 |
| 20260506212347 | 11 | 2 | 0.0 | 1.6 | 0.00 | 1.30 | 1.30 | 95 | 1007.4 |
| 20260506211842 | 12 | 13 | 1.6 | 1.6 | 0.00 | 1.30 | 1.30 | 94 | 1007.2 |
| 20260506211338 | 13 | 26 | 4.8 | 8.0 | 0.00 | 1.30 | 1.30 | 94 | 1006.9 |
| 20260506210836 | 13 | 22 | 1.6 | 1.6 | 0.18 | 1.30 | 1.30 | 94 | 1006.8 |
| 20260506210333 | 15 | 351 | 0.0 | 1.6 | 0.18 | 1.30 | 1.30 | 93 | 1006.7 |
| 20260506205830 | 16 | 332 | 4.8 | 4.8 | 0.18 | 1.30 | 1.30 | 93 | 1006.4 |
| 20260506205326 | 16 | 198 | 1.6 | 1.6 | 0.00 | 1.27 | 1.27 | 92 | 1006.5 |
| 20260506204823 | 16 | 54 | 1.6 | 3.2 | 0.00 | 1.27 | 1.27 | 92 | 1006.4 |
| 20260506204320 | 16 | 248 | 1.6 | 1.6 | 0.00 | 1.27 | 1.27 | 91 | 1006.1 |
| 20260506203818 | 16 | 194 | 3.2 | 4.8 | 0.00 | 1.27 | 1.27 | 91 | 1006.2 |
| 20260506203315 | 16 | 127 | 3.2 | 4.8 | 0.00 | 1.27 | 1.27 | 91 | 1006.0 |
| 20260506202812 | 17 | 6 | 0.0 | 0.0 | 0.00 | 1.27 | 1.27 | 91 | 1006.0 |
| 20260506202309 | 16 | 353 | 0.0 | 0.0 | 0.00 | 1.27 | 1.27 | 92 | 1006.0 |
| 20260506201805 | 17 | 277 | 4.8 | 4.8 | 0.00 | 1.27 | 1.27 | 92 | 1006.1 |
| 20260506201302 | 16 | 83 | 3.2 | 3.2 | 0.00 | 1.27 | 1.27 | 92 | 1006.2 |
| 20260506200800 | 16 | 295 | 1.6 | 3.2 | 0.00 | 1.27 | 1.27 | 93 | 1006.0 |
| 20260506200255 | 16 | 230 | 3.2 | 4.8 | 0.00 | 1.27 | 1.27 | 93 | 1006.2 |
| 20260506195752 | 16 | 210 | 4.8 | 8.0 | 0.00 | 1.27 | 1.27 | 93 | 1006.1 |
| 20260506195249 | 16 | 273 | 1.6 | 3.2 | 0.00 | 1.27 | 1.27 | 93 | 1006.4 |
| 20260506194746 | 16 | 214 | 4.8 | 4.8 | 0.00 | 1.27 | 1.27 | 93 | 1006.3 |
| 20260506194242 | 16 | 282 | 3.2 | 3.2 | 0.00 | 1.27 | 1.27 | 93 | 1006.2 |
| 20260506193740 | 16 | 329 | 1.6 | 1.6 | 0.00 | 1.27 | 1.27 | 93 | 1006.4 |
| 20260506193237 | 16 | 225 | 1.6 | 3.2 | 0.00 | 1.27 | 1.27 | 94 | 1006.5 |
| 20260506192733 | 16 | 103 | 1.6 | 3.2 | 0.00 | 1.27 | 1.27 | 94 | 1006.5 |
| 20260506192230 | 16 | 185 | 3.2 | 3.2 | 0.00 | 1.27 | 1.27 | 94 | 1006.6 |
| 20260506191727 | 16 | 179 | 4.8 | 4.8 | 0.00 | 1.27 | 1.27 | 95 | 1006.5 |
| 20260506191223 | 16 | 333 | 1.6 | 1.6 | 0.00 | 1.27 | 1.27 | 95 | 1006.7 |
| 20260506190720 | 16 | 12 | 0.0 | 1.6 | 0.00 | 1.27 | 1.27 | 96 | 1006.5 |
| 20260506190217 | 16 | 83 | 1.6 | 3.2 | 0.00 | 1.27 | 1.27 | 96 | 1006.5 |
| 20260506185715 | 15 | 241 | 0.0 | 3.2 | 0.00 | 1.27 | 1.27 | 96 | 1006.6 |
| 20260506185210 | 15 | 229 | 3.2 | 4.8 | 0.00 | 1.27 | 1.27 | 96 | 1006.5 |
| 20260506184708 | 15 | 123 | 1.6 | 4.8 | 0.00 | 1.27 | 1.27 | 97 | 1006.8 |
| 20260506184205 | 15 | 321 | 3.2 | 4.8 | 0.00 | 1.27 | 1.27 | 97 | 1006.6 |
| 20260506183701 | 15 | 318 | 4.8 | 4.8 | 0.00 | 1.27 | 1.27 | 97 | 1006.6 |
| 20260506183157 | 15 | 264 | 1.6 | 4.8 | 0.00 | 1.27 | 1.27 | 97 | 1006.6 |
| 20260506182655 | 15 | 350 | 1.6 | 1.6 | 0.00 | 1.27 | 1.27 | 97 | 1006.8 |
| 20260506182151 | 15 | 238 | 4.8 | 8.0 | 0.00 | 1.27 | 1.27 | 98 | 1006.7 |
| 20260506181644 | 15 | 227 | 3.2 | 3.2 | 0.00 | 1.27 | 1.27 | 98 | 1006.7 |
| 20260506181141 | 15 | 81 | 4.8 | 8.0 | 0.00 | 1.27 | 1.27 | 98 | 1006.7 |
| 20260506180638 | 15 | 257 | 3.2 | 3.2 | 0.00 | 1.27 | 1.27 | 98 | 1006.7 |
| 20260506180134 | 15 | 182 | 3.2 | 4.8 | 0.13 | 1.27 | 1.27 | 98 | 1006.9 |
| 20260506175631 | 15 | 161 | 1.6 | 3.2 | 0.13 | 1.27 | 1.27 | 98 | 1006.9 |
| 20260506175127 | 15 | 28 | 0.0 | 0.0 | 0.00 | 1.24 | 1.24 | 98 | 1007.0 |
| 20260506174626 | 15 | 354 | 0.0 | 1.6 | 0.00 | 1.24 | 1.24 | 98 | 1007.0 |
| 20260506174122 | 15 | 253 | 1.6 | 1.6 | 0.18 | 1.24 | 1.24 | 98 | 1006.8 |
| 20260506173620 | 15 | 335 | 0.0 | 1.6 | 0.30 | 1.24 | 1.24 | 98 | 1007.1 |
| 20260506173116 | 15 | 233 | 1.6 | 1.6 | 0.30 | 1.22 | 1.22 | 97 | 1007.0 |
| 20260506172614 | 15 | 337 | 0.0 | 1.6 | 0.30 | 1.19 | 1.19 | 97 | 1007.1 |
| 20260506172110 | 15 | 186 | 1.6 | 3.2 | 0.61 | 1.17 | 1.17 | 97 | 1007.0 |
| 20260506171607 | 15 | 306 | 0.0 | 1.6 | 0.48 | 1.14 | 1.14 | 97 | 1007.0 |
| 20260506171105 | 15 | 330 | 0.0 | 1.6 | 0.30 | 1.09 | 1.09 | 97 | 1007.2 |
| 20260506170601 | 15 | 296 | 3.2 | 4.8 | 0.30 | 1.07 | 1.07 | 97 | 1007.0 |
| 20260506170054 | 15 | 250 | 3.2 | 4.8 | 0.13 | 1.04 | 1.04 | 96 | 1007.1 |
| 20260506165552 | 15 | 332 | 1.6 | 3.2 | 0.18 | 1.02 | 1.02 | 96 | 1007.0 |
| 20260506165048 | 15 | 108 | 1.6 | 3.2 | 0.30 | 1.02 | 1.02 | 96 | 1007.1 |
| 20260506164545 | 15 | 352 | 0.0 | 0.0 | 0.13 | 0.99 | 0.99 | 96 | 1007.0 |
| 20260506164042 | 15 | 3 | 0.0 | 0.0 | 0.18 | 0.97 | 0.97 | 96 | 1007.1 |
| 20260506163538 | 15 | 3 | 0.0 | 0.0 | 0.18 | 0.97 | 0.97 | 96 | 1007.0 |
| 20260506163034 | 15 | 11 | 0.0 | 0.0 | 0.00 | 0.94 | 0.94 | 96 | 1006.9 |
| 20260506162530 | 15 | 224 | 4.8 | 8.0 | 0.13 | 0.94 | 0.94 | 96 | 1007.0 |
| 20260506162027 | 15 | 280 | 1.6 | 3.2 | 0.13 | 0.94 | 0.94 | 96 | 1006.8 |
| 20260506161525 | 15 | 5 | 0.0 | 0.0 | 0.00 | 0.91 | 0.91 | 96 | 1006.8 |
| 20260506161022 | 15 | 31 | 0.0 | 0.0 | 0.18 | 0.91 | 0.91 | 96 | 1006.9 |
| 20260506160520 | 15 | 108 | 3.2 | 3.2 | 0.18 | 0.91 | 0.91 | 96 | 1006.8 |
| 20260506160016 | 15 | 288 | 1.6 | 3.2 | 0.13 | 0.89 | 0.89 | 96 | 1006.8 |
| 20260506155514 | 15 | 33 | 0.0 | 1.6 | 0.43 | 0.89 | 0.89 | 96 | 1007.0 |
| 20260506153646 | 15 | 0 | 0.0 | 0.0 | 0.61 | 0.76 | 0.76 | 95 | 1007.3 |
| 20260506153143 | 15 | 38 | 0.0 | 1.6 | 0.43 | 0.71 | 0.71 | 95 | 1007.5 |
| 20260506152640 | 15 | 189 | 1.6 | 8.0 | 0.30 | 0.66 | 0.66 | 94 | 1007.4 |
| 20260506152138 | 15 | 35 | 0.0 | 1.6 | 0.48 | 0.64 | 0.64 | 94 | 1007.5 |
| 20260506151636 | 15 | 199 | 3.2 | 4.8 | 0.43 | 0.61 | 0.61 | 93 | 1007.7 |
| 20260506151133 | 15 | 243 | 3.2 | 3.2 | 0.30 | 0.56 | 0.56 | 93 | 1007.5 |
| 20260506150630 | 15 | 285 | 1.6 | 3.2 | 0.30 | 0.53 | 0.53 | 93 | 1007.3 |
| 20260506150126 | 15 | 202 | 4.8 | 4.8 | 0.30 | 0.51 | 0.51 | 93 | 1007.2 |
| 20260506145623 | 15 | 177 | 1.6 | 3.2 | 0.36 | 0.48 | 0.48 | 92 | 1007.4 |
| 20260506145120 | 15 | 226 | 8.0 | 9.7 | 0.30 | 0.46 | 0.46 | 91 | 1007.2 |
| 20260506144618 | 16 | 228 | 8.0 | 9.7 | 0.13 | 0.43 | 0.43 | 91 | 1007.2 |
| 20260506144114 | 15 | 182 | 4.8 | 4.8 | 0.18 | 0.41 | 0.41 | 91 | 1007.2 |
| 20260506143612 | 15 | 141 | 3.2 | 3.2 | 0.18 | 0.41 | 0.41 | 91 | 1007.2 |
| 20260506143110 | 15 | 223 | 3.2 | 3.2 | 0.00 | 0.38 | 0.38 | 92 | 1007.2 |
| 20260506142608 | 15 | 167 | 4.8 | 8.0 | 0.13 | 0.38 | 0.38 | 91 | 1007.2 |
| 20260506142106 | 15 | 161 | 3.2 | 4.8 | 0.30 | 0.38 | 0.38 | 92 | 1007.4 |
| 20260506141603 | 15 | 282 | 3.2 | 3.2 | 0.48 | 0.36 | 0.36 | 92 | 1007.4 |
| 20260506141101 | 15 | 198 | 3.2 | 3.2 | 0.30 | 0.33 | 0.33 | 92 | 1007.3 |
| 20260506140558 | 15 | 105 | 8.0 | 11.3 | 0.13 | 0.28 | 0.28 | 91 | 1007.4 |
| 20260506140056 | 15 | 96 | 3.2 | 4.8 | 0.13 | 0.28 | 0.28 | 92 | 1007.4 |
| 20260506135552 | 15 | 298 | 1.6 | 1.6 | 0.18 | 0.25 | 0.25 | 92 | 1007.3 |
| 20260506135048 | 15 | 156 | 3.2 | 3.2 | 0.30 | 0.25 | 0.25 | 92 | 1007.6 |
| 20260506134545 | 15 | 338 | 0.0 | 1.6 | 0.30 | 0.23 | 0.23 | 92 | 1007.9 |
| 20260506134041 | 15 | 290 | 1.6 | 1.6 | 0.30 | 0.20 | 0.20 | 92 | 1007.9 |
| 20260506133538 | 15 | 29 | 0.0 | 1.6 | 0.30 | 0.18 | 0.18 | 91 | 1007.8 |
| 20260506133035 | 15 | 304 | 0.0 | 0.0 | 0.18 | 0.15 | 0.15 | 91 | 1008.0 |
| 20260506132533 | 15 | 5 | 0.0 | 0.0 | 0.18 | 0.15 | 0.15 | 90 | 1008.0 |
| 20260506132030 | 15 | 330 | 1.6 | 1.6 | 0.18 | 0.13 | 0.13 | 90 | 1008.0 |
| 20260506131527 | 15 | 344 | 0.0 | 1.6 | 0.30 | 0.13 | 0.13 | 89 | 1008.0 |
| 20260506131023 | 15 | 357 | 0.0 | 0.0 | 0.13 | 0.10 | 0.10 | 89 | 1008.2 |
| 20260506130520 | 16 | 243 | 1.6 | 3.2 | 0.18 | 0.08 | 0.08 | 88 | 1008.6 |
| 20260506130018 | 16 | 223 | 4.8 | 4.8 | 0.30 | 0.08 | 0.08 | 87 | 1008.3 |
| 20260506125516 | 16 | 12 | 0.0 | 0.0 | 0.13 | 0.05 | 0.05 | 86 | 1008.2 |
| 20260506125013 | 16 | 329 | 0.0 | 1.6 | 0.18 | 0.03 | 0.03 | 85 | 1008.2 |
| 20260506124511 | 16 | 235 | 4.8 | 4.8 | 0.18 | 0.03 | 0.03 | 84 | 1008.1 |
| 20260506124009 | 16 | 133 | 3.2 | 4.8 | 0.00 | 0.00 | 0.00 | 82 | 1008.1 |
| 20260506123506 | 16 | 236 | 4.8 | 8.0 | 0.00 | 0.00 | 0.00 | 81 | 1007.8 |
| 20260506123004 | 16 | 273 | 4.8 | 8.0 | 0.00 | 0.00 | 0.00 | 79 | 1007.7 |
| 20260506122501 | 17 | 339 | 1.6 | 1.6 | 0.00 | 0.00 | 0.00 | 78 | 1007.6 |
| 20260506121959 | 17 | 11 | 1.6 | 1.6 | 0.00 | 0.00 | 0.00 | 77 | 1007.6 |
| 20260506121456 | 17 | 246 | 8.0 | 9.7 | 0.00 | 0.00 | 0.00 | 76 | 1007.7 |
| 20260506120952 | 17 | 179 | 3.2 | 4.8 | 0.00 | 0.00 | 0.00 | 74 | 1007.8 |
| 20260506120450 | 17 | 358 | 0.0 | 0.0 | 0.00 | 0.00 | 0.00 | 73 | 1007.8 |
| 20260506115947 | 17 | 225 | 4.8 | 8.0 | 0.00 | 0.00 | 0.00 | 72 | 1007.8 |
| 20260506115445 | 17 | 36 | 0.0 | 1.6 | 0.00 | 0.00 | 0.00 | 72 | 1007.8 |
| 20260506114943 | 17 | 313 | 1.6 | 3.2 | 0.00 | 0.00 | 0.00 | 71 | 1007.6 |
| 20260506114440 | 17 | 190 | 1.6 | 3.2 | 0.00 | 0.00 | 0.00 | 71 | 1007.8 |
| 20260506113939 | 17 | 135 | 3.2 | 4.8 | 0.00 | 0.00 | 0.00 | 70 | 1007.9 |
| 20260506113436 | 17 | 255 | 3.2 | 9.7 | 0.00 | 0.00 | 0.00 | 69 | 1007.9 |
| 20260506112932 | 17 | 197 | 1.6 | 4.8 | 0.00 | 0.00 | 0.00 | 69 | 1007.7 |
| 20260506112430 | 17 | 294 | 4.8 | 4.8 | 0.00 | 0.00 | 0.00 | 69 | 1007.6 |
| 20260506111927 | 17 | 185 | 3.2 | 4.8 | 0.00 | 0.00 | 0.00 | 69 | 1007.6 |
| 20260506111425 | 17 | 332 | 1.6 | 1.6 | 0.00 | 0.00 | 0.00 | 68 | 1007.3 |
| 20260506110922 | 17 | 155 | 3.2 | 3.2 | 0.00 | 0.00 | 0.00 | 69 | 1007.2 |
| 20260506110420 | 17 | 217 | 3.2 | 3.2 | 0.00 | 0.00 | 0.00 | 68 | 1007.4 |
| 20260506105916 | 17 | 202 | 4.8 | 4.8 | 0.00 | 0.00 | 0.00 | 68 | 1007.6 |
| 20260506105413 | 17 | 336 | 3.2 | 3.2 | 0.00 | 0.00 | 0.00 | 68 | 1007.3 |
| 20260506104910 | 17 | 252 | 3.2 | 3.2 | 0.00 | 0.00 | 0.00 | 68 | 1007.1 |
| 20260506104408 | 17 | 165 | 4.8 | 4.8 | 0.00 | 0.00 | 0.00 | 67 | 1007.1 |
| 20260506103906 | 18 | 179 | 3.2 | 4.8 | 0.00 | 0.00 | 0.00 | 66 | 1007.4 |
| 20260506103403 | 18 | 233 | 4.8 | 8.0 | 0.00 | 0.00 | 0.00 | 66 | 1006.9 |
| 20260506102900 | 18 | 54 | 4.8 | 4.8 | 0.00 | 0.00 | 0.00 | 64 | 1007.0 |
| 20260506102358 | 18 | 2 | 0.0 | 1.6 | 0.00 | 0.00 | 0.00 | 63 | 1007.0 |
| 20260506101855 | 18 | 268 | 3.2 | 4.8 | 0.00 | 0.00 | 0.00 | 63 | 1007.0 |
| 20260506101351 | 18 | 230 | 4.8 | 4.8 | 0.00 | 0.00 | 0.00 | 62 | 1007.1 |
| 20260506100849 | 18 | 273 | 1.6 | 1.6 | 0.00 | 0.00 | 0.00 | 62 | 1007.1 |
| 20260506100347 | 18 | 166 | 8.0 | 11.3 | 0.00 | 0.00 | 0.00 | 61 | 1006.9 |
| 20260506095845 | 18 | 248 | 3.2 | 3.2 | 0.00 | 0.00 | 0.00 | 61 | 1007.0 |
| 20260506095342 | 18 | 348 | 0.0 | 0.0 | 0.00 | 0.00 | 0.00 | 61 | 1007.0 |
| 20260506094838 | 18 | 339 | 0.0 | 0.0 | 0.00 | 0.00 | 0.00 | 61 | 1007.1 |
| 20260506094338 | 18 | 233 | 6.4 | 8.0 | 0.00 | 0.00 | 0.00 | 60 | 1007.1 |
| 20260506093835 | 18 | 289 | 3.2 | 3.2 | 0.00 | 0.00 | 0.00 | 60 | 1007.2 |
| 20260506093332 | 18 | 328 | 0.0 | 0.0 | 0.00 | 0.00 | 0.00 | 60 | 1007.3 |
| 20260506092830 | 17 | 309 | 3.2 | 3.2 | 0.00 | 0.00 | 0.00 | 60 | 1007.1 |
| 20260506092327 | 17 | 352 | 0.0 | 0.0 | 0.00 | 0.00 | 0.00 | 61 | 1007.2 |
| 20260506091824 | 18 | 7 | 0.0 | 1.6 | 0.00 | 0.00 | 0.00 | 59 | 1007.3 |
| 20260506091322 | 18 | 178 | 1.6 | 1.6 | 0.00 | 0.00 | 0.00 | 58 | 1007.1 |
| 20260506090819 | 18 | 156 | 3.2 | 4.8 | 0.00 | 0.00 | 0.00 | 58 | 1007.4 |
| 20260506090317 | 18 | 170 | 3.2 | 3.2 | 0.00 | 0.00 | 0.00 | 58 | 1007.3 |
| 20260506085813 | 18 | 226 | 4.8 | 4.8 | 0.00 | 0.00 | 0.00 | 57 | 1007.3 |
| 20260506085309 | 18 | 259 | 1.6 | 3.2 | 0.00 | 0.00 | 0.00 | 57 | 1007.4 |
| 20260506084806 | 18 | 10 | 0.0 | 1.6 | 0.00 | 0.00 | 0.00 | 57 | 1007.5 |
| 20260506084302 | 18 | 194 | 1.6 | 1.6 | 0.00 | 0.00 | 0.00 | 56 | 1007.2 |
| 20260506083759 | 18 | 197 | 4.8 | 4.8 | 0.00 | 0.00 | 0.00 | 55 | 1007.5 |
| 20260506083257 | 18 | 285 | 1.6 | 1.6 | 0.00 | 0.00 | 0.00 | 55 | 1007.6 |
| 20260506082754 | 18 | 238 | 4.8 | 4.8 | 0.00 | 0.00 | 0.00 | 55 | 1007.6 |
| 20260506082249 | 19 | 4 | 0.0 | 1.6 | 0.00 | 0.00 | 0.00 | 54 | 1007.6 |
| 20260506081747 | 19 | 231 | 4.8 | 8.0 | 0.00 | 0.00 | 0.00 | 53 | 1007.4 |
| 20260506081245 | 19 | 100 | 0.0 | 0.0 | 0.00 | 0.00 | 0.00 | 54 | 1007.3 |
| 20260506080743 | 19 | 243 | 4.8 | 4.8 | 0.00 | 0.00 | 0.00 | 52 | 1007.3 |
| 20260506080239 | 19 | 235 | 4.8 | 4.8 | 0.00 | 0.00 | 0.00 | 52 | 1007.4 |
| 20260506073223 | 19 | 326 | 0.0 | 0.0 | 0.00 | 0.00 | 0.00 | 50 | 1007.6 |
| 20260506072720 | 20 | 172 | 3.2 | 4.8 | 0.00 | 0.00 | 0.00 | 50 | 1007.4 |
| 20260506072217 | 20 | 245 | 4.8 | 4.8 | 0.00 | 0.00 | 0.00 | 50 | 1007.6 |
| 20260506071715 | 20 | 218 | 3.2 | 3.2 | 0.00 | 0.00 | 0.00 | 49 | 1007.7 |
| 20260506071213 | 20 | 249 | 4.8 | 4.8 | 0.00 | 0.00 | 0.00 | 49 | 1007.7 |
| 20260506070709 | 20 | 345 | 0.0 | 0.0 | 0.00 | 0.00 | 0.00 | 49 | 1007.7 |
| 20260506070206 | 20 | 212 | 6.4 | 8.0 | 0.00 | 0.00 | 0.00 | 49 | 1007.6 |
| 20260506062143 | 19 | 209 | 3.2 | 3.2 | 0.00 | 0.00 | 0.00 | 49 | 1008.0 |
| 20260506061639 | 18 | 291 | 1.6 | 8.0 | 0.00 | 0.00 | 0.00 | 49 | 1007.9 |
| 20260506061137 | 17 | 165 | 4.8 | 8.0 | 0.00 | 0.00 | 0.00 | 53 | 1007.8 |
| 20260506060635 | 17 | 62 | 0.0 | 0.0 | 0.00 | 0.00 | 0.00 | 54 | 1008.0 |
| 20260506060132 | 17 | 66 | 1.6 | 1.6 | 0.00 | 0.00 | 0.00 | 55 | 1008.1 |
| 20260506051104 | 19 | 286 | 1.6 | 4.8 | 0.00 | 0.00 | 0.00 | 47 | 1008.7 |
| 20260506050602 | 20 | 306 | 1.6 | 1.6 | 0.00 | 0.00 | 0.00 | 47 | 1008.6 |
| 20260506045052 | 20 | 69 | 1.6 | 1.6 | 0.00 | 0.00 | 0.00 | 47 | 1008.5 |
| 20260506044550 | 20 | 340 | 1.6 | 3.2 | 0.00 | 0.00 | 0.00 | 47 | 1008.5 |
| 20260506044046 | 20 | 221 | 1.6 | 3.2 | 0.00 | 0.00 | 0.00 | 47 | 1008.3 |
| 20260506043543 | 20 | 185 | 4.8 | 8.0 | 0.00 | 0.00 | 0.00 | 46 | 1008.7 |
| 20260506043042 | 20 | 317 | 3.2 | 3.2 | 0.00 | 0.00 | 0.00 | 45 | 1008.6 |
| 20260506042541 | 20 | 144 | 0.0 | 1.6 | 0.00 | 0.00 | 0.00 | 47 | 1008.8 |
| 20260506042038 | 20 | 236 | 1.6 | 3.2 | 0.00 | 0.00 | 0.00 | 45 | 1008.7 |
| 20260506041537 | 20 | 227 | 1.6 | 1.6 | 0.00 | 0.00 | 0.00 | 47 | 1009.0 |
| 20260506041033 | 20 | 187 | 4.8 | 4.8 | 0.00 | 0.00 | 0.00 | 48 | 1008.7 |
| 20260506040531 | 20 | 228 | 3.2 | 4.8 | 0.00 | 0.00 | 0.00 | 47 | 1008.6 |
| 20260506040027 | 20 | 60 | 1.6 | 1.6 | 0.00 | 0.03 | 0.03 | 48 | 1008.8 |
| 20260506035524 | 20 | 175 | 3.2 | 3.2 | 0.00 | 0.03 | 0.03 | 46 | 1008.9 |
| 20260506035021 | 20 | 199 | 0.0 | 1.6 | 0.00 | 0.03 | 0.03 | 45 | 1008.7 |
| 20260506034518 | 21 | 154 | 3.2 | 3.2 | 0.00 | 0.03 | 0.03 | 45 | 1008.8 |
| 20260506034015 | 21 | 192 | 4.8 | 4.8 | 0.00 | 0.03 | 0.03 | 44 | 1008.7 |
| 20260506033512 | 21 | 166 | 4.8 | 8.0 | 0.00 | 0.03 | 0.03 | 44 | 1008.8 |
| 20260506033009 | 21 | 273 | 4.8 | 9.7 | 0.00 | 0.03 | 0.03 | 45 | 1008.8 |
| 20260506032507 | 21 | 205 | 4.8 | 8.0 | 0.00 | 0.03 | 0.03 | 45 | 1008.9 |
| 20260506032003 | 21 | 240 | 3.2 | 4.8 | 0.00 | 0.03 | 0.03 | 44 | 1008.8 |
| 20260506031501 | 21 | 155 | 3.2 | 3.2 | 0.00 | 0.03 | 0.03 | 45 | 1008.7 |
| 20260506030958 | 21 | 244 | 3.2 | 3.2 | 0.00 | 0.03 | 0.03 | 44 | 1008.7 |
| 20260506030456 | 21 | 216 | 6.4 | 8.0 | 0.00 | 0.03 | 0.03 | 44 | 1008.6 |
| 20260506025952 | 21 | 247 | 3.2 | 4.8 | 0.00 | 0.03 | 0.03 | 45 | 1008.7 |
| 20260506025449 | 21 | 213 | 3.2 | 4.8 | 0.00 | 0.03 | 0.03 | 45 | 1008.7 |
| 20260506024946 | 21 | 187 | 4.8 | 8.0 | 0.00 | 0.03 | 0.03 | 45 | 1008.8 |
| 20260506024443 | 20 | 153 | 3.2 | 3.2 | 0.00 | 0.03 | 0.03 | 47 | 1008.7 |
| 20260506023938 | 18 | 252 | 0.0 | 1.6 | 0.00 | 0.03 | 0.03 | 53 | 1008.6 |
| 20260506023435 | 17 | 65 | 0.0 | 0.0 | 0.00 | 0.03 | 0.03 | 63 | 1008.7 |
| 20260506022932 | 17 | 65 | 0.0 | 0.0 | 0.00 | 0.03 | 0.03 | 64 | 1008.8 |
| 20260506022430 | 17 | 64 | 0.0 | 0.0 | 0.00 | 0.03 | 0.03 | 63 | 1008.7 |
| 20260506021928 | 17 | 66 | 1.6 | 1.6 | 0.00 | 0.03 | 0.03 | 62 | 1008.6 |
| 20260506021425 | 18 | 57 | 0.0 | 0.0 | 0.00 | 0.03 | 0.03 | 60 | 1008.8 |